Salem, OR

1:27 PM PDT on September 20, 2017 (GMT -0700)
McNary

Weather History for KSLE - April, 2014

Change the Weather History Date:

Wednesday, April 30, 2014

  Actual Average Record
Temperature  
Mean Temperature 66 °F 53 °F  
Max Temperature 86 °F 64 °F 86 °F (2014)
Min Temperature 46 °F 41 °F 27 °F (1972)
Degree Days  
Heating Degree Days 0 12  
Month to date heating degree days 355 440  
Since 1 July heating degree days 4127 4243  
Cooling Degree Days 1 0  
Month to date cooling degree days 1 0  
Year to date cooling degree days 1 0  
Growing Degree Days 16 (Base 50)    
Moisture  
Dew Point 42 °F    
Average Humidity 49    
Maximum Humidity 77    
Minimum Humidity 21    
Precipitation  
Precipitation 0.00 in 0.07 in 0.57 in (2001)
Month to date precipitation 2.71 2.81  
Year to date precipitation 19.30 17.32  
Sea Level Pressure  
Sea Level Pressure 30.20 in    
Wind  
Wind Speed 6 mph (North)    
Max Wind Speed 18 mph    
Max Gust Speed 23 mph    
Visibility 10 miles    
Events      
T = Trace of Precipitation, MM = Missing Value Source: NWS Daily Summary

Daily Weather History Graph

Daily Weather History Graph

Search for Another Location

Airport or City:

Trip Planner

Search our weather history database for the weather conditions in past years. The results will help you decide how hot, cold, wet, or windy it might be!

Date:

Astronomy

Apr. 30, 2014 Rise Set
Actual Time 6:02 AM PDT 8:16 PM PDT
Civil Twilight 5:30 AM PDT 8:48 PM PDT
Nautical Twilight 4:50 AM PDT 9:28 PM PDT
Astronomical Twilight 4:06 AM PDT 10:13 PM PDT
Moon 7:06 AM PDT (4/30) 10:02 PM PDT (4/30)
Length of Visible Light 15h 17m
Length of Day
14h 13m
Waxing Crescent, 3% of the Moon is Illuminated
Apr 30
Waxing Crescent
May 6
First Quarter
May 14
Full
May 21
Last Quarter
May 28
New

Hourly Weather History & Observations

Time (PDT) Temp. Dew Point Humidity Pressure Visibility Wind Dir Wind Speed Gust Speed Precip Events Conditions
12:56 AM 57.9 °F 41.0 °F 53% 30.30 in 10.0 mi Calm Calm - N/A   Clear
1:56 AM 55.0 °F 42.1 °F 62% 30.30 in 10.0 mi Calm Calm - N/A   Clear
2:56 AM 53.1 °F 41.0 °F 64% 30.30 in 10.0 mi Calm Calm - N/A   Clear
3:56 AM 50.0 °F 41.0 °F 71% 30.30 in 10.0 mi Calm Calm - N/A   Clear
4:56 AM 48.9 °F 41.0 °F 74% 30.29 in 10.0 mi Calm Calm - N/A   Clear
5:56 AM 46.0 °F 39.0 °F 76% 30.28 in 10.0 mi Calm Calm - N/A   Clear
6:56 AM 48.9 °F 41.0 °F 74% 30.29 in 10.0 mi SE 3.5 mph - N/A   Clear
7:56 AM 60.1 °F 39.9 °F 47% 30.29 in 10.0 mi Calm Calm - N/A   Clear
8:56 AM 64.0 °F 39.0 °F 40% 30.27 in 10.0 mi North 8.1 mph - N/A   Clear
9:56 AM 68.0 °F 42.1 °F 39% 30.26 in 10.0 mi North 9.2 mph - N/A   Clear
10:56 AM 73.0 °F 44.1 °F 35% 30.24 in 10.0 mi NNW 9.2 mph - N/A   Clear
11:56 AM 77.0 °F 44.1 °F 31% 30.22 in 10.0 mi North 8.1 mph - N/A   Clear
12:56 PM 81.0 °F 43.0 °F 26% 30.18 in 10.0 mi North 10.4 mph - N/A   Clear
1:56 PM 82.9 °F 42.1 °F 24% 30.16 in 10.0 mi NNW 13.8 mph - N/A   Clear
2:56 PM 84.9 °F 43.0 °F 23% 30.12 in 10.0 mi North 11.5 mph - N/A   Clear
3:56 PM 86.0 °F 43.0 °F 22% 30.10 in 10.0 mi North 15.0 mph - N/A   Clear
4:56 PM 84.9 °F 44.1 °F 24% 30.08 in 10.0 mi North 16.1 mph - N/A   Clear
8:56 PM 71.1 °F 43.0 °F 36% 30.02 in 10.0 mi NW 5.8 mph - N/A   Clear
11:56 PM 59.0 °F 44.1 °F 58% 30.04 in 10.0 mi Calm Calm - N/A   Clear